[[{"header":{"parameterUnit":"m.s-1","parameterCategory":1,"la1":30.2991,"la2":30.254,"lo1":-89.0895,"lo2":-89.0444,"dy":0.0017,"dx":0.0017,"nx":28,"ny":28,"refTime":"2024-10-16T21:00:00:Z","depth":0,"parameterNumber":2,"parameterNumberName":"U-component_of_WINDS"},"data":[0,0,0,0,0,0,0,0,0,0,0,0,0,0,0,0,0,0,0,0,0,0,0,0,0,0,0,0,0,0,0,0,0,0,0,0,0,0,0,0,0,0,0,0,0,0,0,0,0,0,0,0,0,0,0,0,0,0,-5.5831,-5.5832,0,-5.5864,-5.5865,-5.5865,-5.5614,-5.5607,-5.56,-5.5593,-5.5629,-5.5636,-5.5644,0,0,0,0,0,0,0,0,0,0,0,0,0,-5.5551,-5.5558,-5.5831,-5.5832,-5.5832,-5.5864,-5.5865,-5.5865,-5.5615,-5.5607,-5.5598,-5.559,-5.5627,-5.5636,-5.5645,0,0,0,0,0,0,0,0,0,0,0,0,0,-5.5638,-5.556,-5.5831,-5.5711,-5.5701,-5.5864,-5.5865,-5.5865,-5.5617,-5.5607,-5.5596,-5.5586,-5.5624,-5.5635,-5.5646,-5.5927,0,0,-5.568,-5.5685,0,0,0,0,0,0,0,0,-5.5633,-5.5648,-5.5729,-5.572,-5.5708,-5.5724,-5.5779,-5.5886,-5.562,-5.5649,-5.5593,-5.5581,-5.567,-5.5676,-5.5706,-5.5928,-5.593,-5.5681,-5.5688,-5.5693,-5.5696,0,0,0,0,0,0,0,-5.5627,-5.5645,-5.5844,-5.573,-5.5718,-5.5656,-5.5656,-5.5798,-5.5718,-5.5646,-5.5628,-5.5635,-5.5662,-5.5696,-5.5705,-5.593,-5.5681,-5.5691,-5.5698,-5.5702,-5.6382,-5.6393,0,0,0,0,0,0,-5.5637,-5.5642,-5.5843,-5.5845,-5.5644,-5.5669,-5.567,-5.573,-5.5716,-5.5703,-5.5644,-5.5623,-5.5681,-5.5692,-5.5705,-5.6032,-5.5693,-5.5703,-5.571,-5.6371,-5.6385,-5.6397,0,0,0,0,0,0,-5.5632,-5.5658,-5.5842,-5.5739,-5.5757,-5.5685,-5.5755,-5.5736,-5.5769,-5.5714,-5.5699,-5.5693,-5.5674,-5.5689,-5.5873,-5.603,-5.5708,-5.5719,-5.6358,-5.6375,-5.6391,-5.6689,0,0,0,0,0,0,-5.5625,-5.5657,-5.5764,-5.5743,-5.5764,-5.6011,-5.5764,-5.5744,-5.5789,-5.5762,-5.5756,-5.5745,-5.5666,-5.5857,-5.5884,-5.6039,-5.5727,-5.6344,-5.6366,-5.6386,-5.6665,-5.6714,-5.6756,0,0,0,0,0,-5.5616,-5.5847,-5.5771,-5.5796,-5.5895,-5.602,-5.6032,-5.5936,-5.5803,-5.5909,-5.5873,-5.5745,-5.6008,-5.5878,-5.5906,-5.6067,-5.6333,-5.6359,-5.6384,-5.6645,-5.6705,-5.6755,0,0,0,0,0,0,-5.5889,-5.5842,-5.5757,-5.5988,-5.601,-5.5977,-5.6108,-5.6003,-5.6064,-5.6036,-5.5915,-5.5915,-5.612,-5.6111,-5.5967,-5.6337,-5.6147,-5.618,-5.6336,-5.6392,-5.6437,-5.6435,-5.5737,0,0,0,0,0,-5.5976,-5.6081,-5.6034,-5.6243,-5.6258,-5.6182,-5.6233,-5.6157,-5.6175,-5.6183,-5.616,-5.6183,-5.627,-5.633,-5.6407,-5.6662,-5.6656,-5.6786,-5.6832,-5.6869,-5.6899,-5.7032,-5.7089,-5.6481,-5.6481,-5.648,0,0,-5.6157,-5.6144,-5.6218,-5.6297,-5.6305,-5.6416,-5.6191,-5.6319,-5.64,-5.6202,-5.6374,-5.6359,-5.6375,-5.6596,-5.6691,-5.6595,-5.7066,-5.6902,-5.6933,-5.6942,-5.7064,-5.7122,-5.7173,-5.6498,-5.6495,-5.6492,0,0,-5.6544,-5.6545,-5.6718,-5.673,-5.6745,-5.6692,-5.6734,-5.6718,-5.6699,-5.687,-5.6723,-5.6817,-5.6971,-5.6988,-5.7018,-5.7409,-5.7294,-5.7438,-5.7677,-5.7808,-5.7856,-5.7898,-5.8037,-5.8089,-5.7467,-5.7468,-5.7468,0,-5.6768,-5.6929,-5.6821,-5.6958,-5.6997,-5.6821,-5.6995,-5.7012,-5.7052,-5.7083,-5.6973,-5.7161,-5.716,-5.7381,-5.7477,-5.7506,-5.755,-5.7439,-5.7857,-5.7898,-5.7936,-5.8068,-5.8121,-5.7485,-5.7483,-5.7481,-5.748,0,-5.7203,-5.7318,-5.7455,-5.7497,-5.7551,-5.7707,-5.7621,-5.7689,-5.7608,-5.7567,-5.7742,-5.7734,-5.7806,-5.7853,-5.7776,-5.8064,-5.8003,-5.7878,-5.7685,-5.8013,-5.8135,-5.8185,-5.751,-5.7504,-5.7499,-5.7495,0,0,-5.7765,-5.7743,-5.7796,-5.7812,-5.7814,-5.79,-5.8047,-5.8116,-5.8177,-5.8209,-5.8329,-5.8462,-5.8345,-5.8379,-5.8301,-5.8416,-5.8727,-5.8276,-5.8275,-5.8361,-5.9043,-5.9138,-5.9198,-5.8649,-5.8658,-5.8666,-5.9041,0,-5.8142,-5.8392,-5.8297,-5.8554,-5.8657,-5.8491,-5.8618,-5.8634,-5.8599,-5.8682,-5.8642,-5.8739,-5.8578,-5.8597,-5.8703,-5.8667,-5.8862,-5.8638,-5.876,-5.8766,-5.8762,-5.9262,-5.9362,-5.9718,-5.9088,-5.9096,-5.9102,0,-5.8616,-5.8667,-5.8935,-5.8917,-5.8957,-5.9073,-5.9129,-5.921,-5.9223,-5.9189,-5.9227,-5.9123,-5.9265,-5.9072,-5.9266,-5.9116,-5.9159,-5.9149,-5.916,-5.9169,-5.8955,-5.9284,-5.9828,-5.9882,-5.9176,-5.917,-5.9165,0,-5.9,-5.9135,-5.9311,-5.933,-5.9315,-5.94,-5.9398,-5.94,-5.9448,-5.9496,-5.9525,-5.959,-5.9626,-5.9679,-5.9596,-5.9462,-5.9802,-5.9601,-5.9778,-5.9781,-5.9858,-5.9854,-6.0418,-5.9886,-5.9885,-5.9884,-5.9883,0,-5.9432,-5.9602,-5.9483,-5.9593,-5.9777,-5.9666,-5.9853,-5.9831,-5.9835,-5.9936,-5.9796,-5.9894,-5.9778,-5.9866,-5.9801,-5.9972,-5.9989,-5.9966,-5.9947,-5.9979,-5.9982,-6.0007,-5.998,-5.9898,-5.9895,-5.9892,-5.989,0,-5.9892,-5.9819,-6.0001,-5.997,-5.9966,-6.0104,-6.0077,-6.0177,-6.0131,-6.0261,-6.0286,-6.0215,-6.031,-6.0232,-6.0325,-6.0281,-6.0507,-6.0453,-6.0503,-6.0488,-6.0669,-6.0654,-6.1269,-6.1344,-6.0764,-6.077,-6.0775,0,-6.0173,-6.0299,-6.0282,-6.0339,-6.0345,-6.044,-6.0487,-6.0382,-6.0437,-6.0461,-6.0558,-6.064,-6.0701,-6.0861,-6.0818,-6.0888,-6.0835,-6.1045,-6.0844,-6.0872,-6.0838,-6.0832,-6.0844,-6.1087,-6.1094,-6.1099,-6.1104,0,-6.0679,-6.0636,-6.0709,-6.0771,-6.0831,-6.0874,-6.0906,-6.0961,-6.0854,-6.0923,-6.1018,-6.1065,-6.1159,-6.1243,-6.1298,-6.1295,-6.1183,-6.1167,-6.1211,-6.1246,-6.127,-6.1259,-6.0615,-6.1154,-6.1149,-6.1145,-6.1142,-6.114,-6.1057,-6.1161,-6.1165,-6.1251,-6.1264,-6.1297,-6.1388,-6.1353,-6.1431,-6.1499,-6.1432,-6.1547,-6.1555,-6.1617,-6.1628,-6.1716,-6.1628,-6.1693,-6.1709,-6.1727,-6.1753,-6.1256,-6.1726,-6.1724,-6.1723,-6.1721,-6.172,0,-6.1556,-6.1549,-6.1629,-6.1678,-6.1746,-6.1632,-6.1662,-6.1726,-6.1829,-6.1846,-6.1908,-6.2017,-6.2097,-6.206,-6.213,-6.2208,-6.2158,-6.223,-6.2223,-6.2224,-6.1828,-6.1782,-6.2269,-6.2269,-6.2269,-6.2269,-6.2269,-6.2269,-6.1823,-6.1993,-6.1951,-6.2126,-6.2117,-6.2229,-6.2255,-6.2285,-6.2297,-6.2425,-6.2491,-6.2465,-6.246,-6.2528,-6.2597,-6.2584,-6.2616,-6.2707,-6.2676,-6.2306,-6.2252,-6.2201,-6.2157,-6.2715,-6.2716,-6.3065,-6.3068,-6.3071]},{"header":{"parameterUnit":"m.s-1","parameterCategory":1,"la1":30.2991,"la2":30.254,"lo1":-89.0895,"lo2":-89.0444,"dy":0.0017,"dx":0.0017,"nx":28,"ny":28,"refTime":"2024-10-16T21:00:00:Z","depth":0,"parameterNumber":3,"parameterNumberName":"V-component_of_WINDS"},"data":[0,0,0,0,0,0,0,0,0,0,0,0,0,0,0,0,0,0,0,0,0,0,0,0,0,0,0,0,0,0,0,0,0,0,0,0,0,0,0,0,0,0,0,0,0,0,0,0,0,0,0,0,0,0,0,0,0,0,-4.6767,-4.6767,0,-4.6825,-4.6825,-4.6826,-4.6761,-4.6759,-4.6756,-4.6754,-4.6811,-4.6814,-4.6818,0,0,0,0,0,0,0,0,0,0,0,0,0,-4.6595,-4.6598,-4.6767,-4.6767,-4.6768,-4.6825,-4.6825,-4.6826,-4.6761,-4.6758,-4.6755,-4.6753,-4.6809,-4.6814,-4.6818,0,0,0,0,0,0,0,0,0,0,0,0,0,-4.6663,-4.6599,-4.6766,-4.6743,-4.6741,-4.6825,-4.6825,-4.6826,-4.6762,-4.6758,-4.6755,-4.6751,-4.6808,-4.6813,-4.6819,-4.6928,0,0,-4.6837,-4.6839,0,0,0,0,0,0,0,0,-4.6659,-4.6669,-4.6745,-4.6744,-4.6743,-4.6782,-4.6786,-4.686,-4.6763,-4.6754,-4.6754,-4.6749,-4.6804,-4.681,-4.6829,-4.6931,-4.6933,-4.6837,-4.684,-4.6843,-4.6845,0,0,0,0,0,0,0,-4.6654,-4.6666,-4.6789,-4.6747,-4.6745,-4.6727,-4.6733,-4.6799,-4.6799,-4.6755,-4.675,-4.6758,-4.6802,-4.6823,-4.6829,-4.6934,-4.6837,-4.6842,-4.6845,-4.6848,-4.7124,-4.7128,0,0,0,0,0,0,-4.6653,-4.6663,-4.6788,-4.6791,-4.6691,-4.6734,-4.674,-4.6773,-4.6798,-4.6798,-4.6761,-4.6755,-4.6815,-4.6823,-4.6831,-4.6958,-4.6843,-4.6848,-4.6852,-4.712,-4.7125,-4.7129,0,0,0,0,0,0,-4.665,-4.6665,-4.6785,-4.6726,-4.674,-4.674,-4.6778,-4.6776,-4.6797,-4.6803,-4.6802,-4.6783,-4.6813,-4.6823,-4.6904,-4.6959,-4.6851,-4.6856,-4.7116,-4.7122,-4.7127,-4.7214,0,0,0,0,0,0,-4.6645,-4.6664,-4.6707,-4.6727,-4.6743,-4.6859,-4.6782,-4.678,-4.6807,-4.6799,-4.6823,-4.6823,-4.6811,-4.6896,-4.6909,-4.6965,-4.686,-4.7111,-4.7119,-4.7126,-4.7206,-4.7222,-4.7235,0,0,0,0,0,-4.6639,-4.6729,-4.6709,-4.6725,-4.6797,-4.6862,-4.6871,-4.6855,-4.6812,-4.6854,-4.6857,-4.6823,-4.6951,-4.6904,-4.6919,-4.6977,-4.7107,-4.7116,-4.7125,-4.7199,-4.7219,-4.7235,0,0,0,0,0,0,-4.6714,-4.6731,-4.671,-4.6809,-4.6835,-4.6851,-4.6903,-4.6877,-4.6915,-4.6906,-4.6884,-4.689,-4.6975,-4.6984,-4.6932,-4.7082,-4.7022,-4.7034,-4.7073,-4.7092,-4.7106,-4.7101,-4.6865,0,0,0,0,0,-4.6743,-4.6795,-4.6807,-4.6893,-4.6907,-4.6903,-4.6931,-4.6917,-4.6942,-4.6952,-4.6962,-4.6986,-4.7032,-4.7062,-4.7105,-4.7207,-4.721,-4.7254,-4.7269,-4.7281,-4.7291,-4.7343,-4.7362,-4.7159,-4.7158,-4.7158,0,0,-4.6802,-4.6817,-4.6852,-4.6909,-4.6927,-4.698,-4.6913,-4.6973,-4.7011,-4.6961,-4.7037,-4.7045,-4.7071,-4.7162,-4.7203,-4.7172,-4.7348,-4.7292,-4.7302,-4.7306,-4.7354,-4.7373,-4.739,-4.7165,-4.7163,-4.7162,0,0,-4.6935,-4.6954,-4.7027,-4.7046,-4.7074,-4.707,-4.7088,-4.7108,-4.7111,-4.7187,-4.7149,-4.7194,-4.7274,-4.7293,-4.7314,-4.7452,-4.742,-4.7466,-4.7543,-4.7594,-4.761,-4.7624,-4.7671,-4.7688,-4.7477,-4.7477,-4.7477,0,-4.7005,-4.7085,-4.7067,-4.7129,-4.7154,-4.7111,-4.7183,-4.7202,-4.7242,-4.726,-4.7226,-4.7323,-4.7338,-4.7431,-4.7464,-4.7483,-4.75,-4.7463,-4.7609,-4.7623,-4.7636,-4.768,-4.7698,-4.7483,-4.7482,-4.7481,-4.7481,0,-4.7167,-4.7223,-4.7278,-4.7318,-4.7349,-4.7416,-4.7406,-4.7439,-4.7422,-4.7421,-4.7498,-4.7514,-4.7557,-4.7578,-4.7562,-4.7669,-4.7649,-4.7613,-4.7551,-4.7661,-4.7702,-4.7719,-4.749,-4.7488,-4.7487,-4.7485,0,0,-4.7351,-4.7379,-4.7399,-4.7415,-4.7442,-4.7484,-4.7547,-4.759,-4.7618,-4.7647,-4.7698,-4.7765,-4.7731,-4.7754,-4.7739,-4.7784,-4.7889,-4.7741,-4.7741,-4.7766,-4.8004,-4.803,-4.805,-4.7868,-4.7872,-4.7874,-4.8001,0,-4.7483,-4.7594,-4.7579,-4.7685,-4.7734,-4.7693,-4.7748,-4.7769,-4.777,-4.781,-4.781,-4.7858,-4.781,-4.7823,-4.7866,-4.7867,-4.7936,-4.7858,-4.7913,-4.7916,-4.7907,-4.8072,-4.81,-4.8219,-4.8017,-4.802,-4.8022,0,-4.7653,-4.7687,-4.7798,-4.7814,-4.7834,-4.7884,-4.7921,-4.7961,-4.7983,-4.798,-4.8005,-4.7981,-4.8042,-4.7981,-4.8063,-4.801,-4.8032,-4.8036,-4.804,-4.8043,-4.7974,-4.8078,-4.8257,-4.8274,-4.8048,-4.8046,-4.8044,0,-4.7773,-4.7847,-4.7922,-4.7937,-4.7959,-4.7994,-4.8005,-4.8023,-4.8049,-4.8081,-4.8097,-4.8135,-4.8156,-4.8185,-4.8171,-4.8128,-4.8256,-4.8193,-4.8253,-4.8253,-4.8281,-4.8279,-4.8464,-4.8298,-4.8298,-4.8297,-4.8297,0,-4.7921,-4.799,-4.7975,-4.8022,-4.8096,-4.8077,-4.8151,-4.8156,-4.8173,-4.8218,-4.8185,-4.8227,-4.8207,-4.8248,-4.8238,-4.8306,-4.8316,-4.8314,-4.831,-4.8316,-4.8316,-4.8328,-4.8319,-4.8302,-4.8301,-4.83,-4.8299,0,-4.8068,-4.8061,-4.8139,-4.8153,-4.8158,-4.8212,-4.8223,-4.8265,-4.8262,-4.8319,-4.8331,-4.8327,-4.8372,-4.8362,-4.8413,-4.8405,-4.849,-4.8477,-4.8483,-4.8479,-4.8538,-4.8532,-4.8737,-4.8761,-4.8582,-4.8583,-4.8585,0,-4.8162,-4.8214,-4.8232,-4.826,-4.8273,-4.8318,-4.8344,-4.8326,-4.8354,-4.8382,-4.842,-4.8463,-4.8496,-4.8571,-4.8571,-4.8608,-4.8594,-4.8664,-4.86,-4.8603,-4.8593,-4.8589,-4.8593,-4.8676,-4.8678,-4.868,-4.8681,0,-4.8329,-4.8323,-4.8362,-4.8399,-4.8431,-4.8459,-4.8484,-4.8508,-4.8492,-4.8525,-4.8571,-4.8597,-4.8647,-4.8689,-4.8724,-4.8732,-4.8703,-4.8701,-4.8716,-4.8722,-4.8722,-4.8721,-4.8515,-4.8696,-4.8695,-4.8694,-4.8693,-4.8692,-4.8451,-4.8494,-4.8513,-4.8556,-4.8573,-4.8597,-4.8636,-4.8638,-4.8676,-4.8716,-4.8703,-4.8755,-4.8773,-4.8816,-4.8829,-4.8868,-4.8842,-4.8865,-4.887,-4.8876,-4.8882,-4.8718,-4.8875,-4.8874,-4.8874,-4.8874,-4.8873,0,-4.8614,-4.8624,-4.8664,-4.87,-4.8734,-4.8704,-4.873,-4.8759,-4.8806,-4.8825,-4.8858,-4.891,-4.895,-4.8953,-4.899,-4.9021,-4.9008,-4.9031,-4.9027,-4.9029,-4.8905,-4.8887,-4.904,-4.904,-4.904,-4.904,-4.904,-4.904,-4.8703,-4.8773,-4.8769,-4.8845,-4.8854,-4.8905,-4.8922,-4.8943,-4.8958,-4.9017,-4.905,-4.9052,-4.9064,-4.9102,-4.9136,-4.9136,-4.915,-4.9177,-4.9172,-4.9055,-4.9038,-4.9023,-4.9005,-4.9181,-4.9181,-4.9293,-4.9294,-4.9295]}]]